User: anonymous   Login
Location: Marcé
(47.5801°N, 0.3280°W)
Time: 18:34:47
(UTC+01:00)
Language:

Vanguard 2 Rocket - Orbit

View from above orbital plane
View from above orbital plane
View from above satellite
View from above satellite

Ground track
Ground track

The orbit data is extracted from the following two-line orbital elements,

1    12U 59001B   21334.18846065  .00000549  00000-0  32323-3 0  9993
2    12  32.9035 293.8962 1664080 346.5390   9.5530 11.44441995583360
Epoch (UTC): 30 November 2021 04:31:23
Eccentricity: 0.1664080
inclination: 32.9035°
perigee height: 555 km
apogee height: 3324 km
right ascension of ascending node: 293.8962°
argument of perigee: 346.5390°
revolutions per day: 11.44441995
mean anomaly at epoch: 9.5530°
orbit number at epoch: 58336

The dashed part of the orbit path shows where the satellite is in the earth's shadow,  

DLR